Regional Weather Roundup
Issued by NWS

Home | Current Version | Previous Version | Text Only | Print | Product List | Glossary Off
Versions: 1 2 3 4 5 6 7 8 9 10 11 12 13 14 15 16 17 18 19 20 21 22 23 24 25 26 27 28 29 30 31 32 33 34 35 36 37 38 39 40 41 42 43 44 45 46 47 48 49 50

671
ASUS43 KMKX 230011
RWRWI

WISCONSIN REGIONAL WEATHER ROUNDUP
NATIONAL WEATHER SERVICE MILWAUKEE/SULLIVAN WI
700 PM CDT THU JUN 22 2017

NOTE: "FAIR" INDICATES FEW OR NO CLOUDS BELOW 12,000 FEET WITH NO
SIGNIFICANT WEATHER AND/OR OBSTRUCTIONS TO VISIBILITY.

WIZ001-002-006>008-014>016-023>028-230100-
NORTHWEST WISCONSIN

CITY           SKY/WX    TMP DP  RH WIND       PRES   REMARKS
SUPERIOR ARPT  NOT AVBL
ASHLAND        SUNNY     73  54  51 SW12      29.68S
6HR MIN TEMP:  70; 6HR MAX TEMP:  76;

HAYWARD        SUNNY     71  55  56 SW8       29.72S
6HR MIN TEMP:  67; 6HR MAX TEMP:  72;

SIREN          SUNNY     72  53  51 W8        29.73S
6HR MIN TEMP:  65; 6HR MAX TEMP:  73;

CUMBERLAND     MOSUNNY   68  57  68 NW6       29.74S
RICE LAKE      MOSUNNY   69  61  75 W8        29.75S
6HR MIN TEMP:  64; 6HR MAX TEMP:  69; 6HR PCP:  0.07;

CHETEK         MOSUNNY   67  64  89 W5        29.73F
6HR MIN TEMP:  64; 6HR MAX TEMP:  68; 6HR PCP:  0.17;

LADYSMITH      CLOUDY    69  63  81 W7        29.75S
6HR MIN TEMP:  64; 6HR MAX TEMP:  69; 6HR PCP:  0.11;

EAU CLAIRE     NOT AVBL
MENOMONIE      RAIN      66  65  96 NW6       29.73F
6HR MIN TEMP:  66; 6HR MAX TEMP:  70; 6HR PCP:  0.10;

NEW RICHMOND   PTSUNNY   70  63  78 W5        29.74S
6HR MIN TEMP:  65; 6HR MAX TEMP:  70; 6HR PCP:  0.16;

OSCEOLA        MOSUNNY   71  61  70 W6        29.76S
6HR MIN TEMP:  66; 6HR MAX TEMP:  72; 6HR PCP:  0.03;

$$

WIZ003>005-009-010-017-018-230100-
NORTH CENTRAL WISCONSIN

CITY           SKY/WX    TMP DP  RH WIND       PRES   REMARKS
MANITOWISH WTR PTSUNNY   67  58  74 W9        29.72F
6HR MIN TEMP:  64; 6HR MAX TEMP:  67;

ARBOR VITAE    CLOUDY    65  61  87 W5        29.73S
6HR MIN TEMP:  63; 6HR MAX TEMP:  65; 6HR PCP:  0.03;

WOODRUFF       CLOUDY    65  61  87 W5        29.73S
6HR MIN TEMP:  63; 6HR MAX TEMP:  65; 6HR PCP:  0.03;

RHINELANDER    LGT RAIN  63  63 100 W5        29.75S
6HR MIN TEMP:  63; 6HR MAX TEMP:  67; 6HR PCP:  0.20;

EAGLE RIVER    CLOUDY    63  62  94 CALM      29.73R
6HR MIN TEMP:  63; 6HR MAX TEMP:  65;

LAND O LAKES   PTSUNNY   67  58  73 W7        29.74S
6HR MIN TEMP:  64; 6HR MAX TEMP:  67;

PHILLIPS       MOSUNNY   65  63  91 CALM      29.73S
6HR MIN TEMP:  62; 6HR MAX TEMP:  66; 6HR PCP:  0.09;

TOMAHAWK       NOT AVBL
MEDFORD        CLOUDY    65  63  91 CALM      29.74F
6HR MIN TEMP:  64; 6HR MAX TEMP:  67; 6HR PCP:  0.11;

MERRILL        CLOUDY    67  67  99 W5        29.74S
6HR MIN TEMP:  65; 6HR MAX TEMP:  70; 6HR PCP:  0.23;

$$

WIZ029-030-035-036-043>047-230100-
CENTRAL WISCONSIN

CITY           SKY/WX    TMP DP  RH WIND       PRES   REMARKS
WAUSAU         CLOUDY    66  65  96 W6        29.72R
6HR MIN TEMP:  64; 6HR MAX TEMP:  69; 6HR PCP:  0.59;

MOSINEE        CLOUDY    66  66 100 W6        29.75S
MARSHFIELD     CLOUDY    67  64  90 W6        29.72R
6HR MIN TEMP:  64; 6HR MAX TEMP:  67; 6HR PCP:  0.36;

STEVENS POINT  LGT RAIN  65  65 100 W3        29.73S
6HR MIN TEMP:  65; 6HR MAX TEMP:  68; 6HR PCP:  0.70;

WAUPACA        CLOUDY    69  68  96 S3        29.70F
6HR MIN TEMP:  69; 6HR MAX TEMP:  76; 6HR PCP:  0.01;

WAUTOMA        LGT RAIN  68  65  90 CALM      29.72F
6HR MIN TEMP:  68; 6HR MAX TEMP:  74; 6HR PCP:  0.20;

WISC RAPIDS    CLOUDY    68  67  96 CALM      29.72F
6HR MIN TEMP:  67; 6HR MAX TEMP:  72; 6HR PCP:  0.37;

CAMP DOUGLAS   CLOUDY    66  66 100 S10       29.70F
6HR MIN TEMP:  66; 6HR MAX TEMP:  70; 6HR PCP:  0.86;

$$

WIZ011>013-019>022-031-037>040-048>050-230100-
NORTHEAST WISCONSIN

CITY           SKY/WX    TMP DP  RH WIND       PRES   REMARKS
ANTIGO         CLOUDY    65  64  99 W7        29.75R
6HR MIN TEMP:  62; 6HR MAX TEMP:  68; 6HR PCP:  0.73;

SHAWANO        LGT RAIN  69  67  92 CALM      29.69F
OCONTO         CLOUDY    68  67  96 CALM      29.69F
6HR MIN TEMP:  66; 6HR MAX TEMP:  72; 6HR PCP:  0.51;

STURGEON BAY   RAIN      70  68  93 SW6         N/A
6HR MIN TEMP:  66; 6HR MAX TEMP:  75;

GREEN BAY      RAIN      70  69  97 SW7       29.70F FOG
6HR MIN TEMP:  70; 6HR MAX TEMP:  77; 6HR PCP:  0.10;

MANITOWOC      CLOUDY    70  66  87 NW9       29.72F
6HR MIN TEMP:  70; 6HR MAX TEMP:  79; 6HR PCP:  0.09;

APPLETON       LGT RAIN  66  66 100 NW8       29.71F
CLINTONVILLE   CLOUDY    68  64  88 NW3       29.71S
OSHKOSH        LGT RAIN  70  65  84 CALM      29.71F
6HR MIN TEMP:  69; 6HR MAX TEMP:  75; 6HR PCP:  0.07;

$$

WIZ032>034-041-042-053>061-230100-
SOUTHWEST WISCONSIN

CITY           SKY/WX    TMP DP  RH WIND       PRES   REMARKS
LA CROSSE      LGT RAIN  70  68  93 NE5       29.68F
6HR MIN TEMP:  69; 6HR MAX TEMP:  72; 6HR PCP:  0.72;

SPARTA         LGT RAIN  65  65  99 SW3       29.73S
6HR MIN TEMP:  65; 6HR MAX TEMP:  68; 6HR PCP:  0.72;

VIROQUA        CLOUDY    68  68 100 E6        29.72F
6HR MIN TEMP:  67; 6HR MAX TEMP:  72; 6HR PCP:  0.14;

BOSCOBEL       HVY RAIN  73  70  90 CALM      29.69F FOG
6HR MIN TEMP:  73; 6HR MAX TEMP:  79; 6HR PCP:  0.09;

PRAIRIE DU CHI LGT RAIN  76  70  82 NE3       29.68S
6HR MIN TEMP:  70; 6HR MAX TEMP:  80;

PLATTEVILLE    PTSUNNY   81  73  75 CALM      29.70F HX  86
6HR MIN TEMP:  77; 6HR MAX TEMP:  83;

$$

WIZ056-057-062-063-064-067-068-230100-
SOUTH CENTRAL WISCONSIN

CITY           SKY/WX    TMP DP  RH WIND       PRES   REMARKS
REEDSBURG      RAIN      69  69 100 N6        29.72F
6HR MIN TEMP:  68; 6HR MAX TEMP:  73; 6HR PCP:  0.06;

BARABOO/DELLS  CLOUDY    70  66  87 CALM      29.73S
6HR MIN TEMP:  67; 6HR MAX TEMP:  72;

LONE ROCK      CLOUDY    73  67  81 E5        29.70F
6HR MIN TEMP:  71; 6HR MAX TEMP:  78; 6HR PCP:  0.01;

MINERAL POINT  CLOUDY    77  73  88 NE6       29.72S
MADISON        CLOUDY    74  68  81 N9        29.71R
6HR MIN TEMP:  73; 6HR MAX TEMP:  79; 6HR PCP: TRACE;

MIDDLETON      CLOUDY    74  67  80 N9        29.72S
6HR MIN TEMP:  74; 6HR MAX TEMP:  80;

WATERTOWN      PTSUNNY   74  70  86 N6        29.71R
6HR MIN TEMP:  73; 6HR MAX TEMP:  78;

MONROE         CLOUDY    81  70  69 SW9       29.71S HX  84
JANESVILLE     PTSUNNY   84  70  61 SW7       29.70R HX  88
$$

WIZ051-052-058>065-066-070>072-230100-
SOUTHEAST WISCONSIN

CITY           SKY/WX    TMP DP  RH WIND       PRES   REMARKS
MILWAUKEE      PTSUNNY   74  66  76 E7        29.71F
6HR MIN TEMP:  73; 6HR MAX TEMP:  87;

WAUKESHA       TSTM      75  68  78 E5        29.72F
MILWAUKEE/TIMM MOSUNNY   75  63  64 E6        29.71F
RACINE         CLOUDY    75  64  68 CALM      29.72S
6HR MIN TEMP:  72; 6HR MAX TEMP:  88;

KENOSHA        CLOUDY    84  69  60 SW9       29.70S HX  88
6HR MIN TEMP:  82; 6HR MAX TEMP:  87; 6HR PCP: TRACE;

FOND DU LAC    MOSUNNY   73  66  78 N5        29.72R
6HR MIN TEMP:  72; 6HR MAX TEMP:  74; 6HR PCP:  0.07;

SHEBOYGAN      CLOUDY    73  68  84 CALM      29.71F
6HR MIN TEMP:  73; 6HR MAX TEMP:  77; 6HR PCP: TRACE;

WEST BEND      CLOUDY    73  64  73 CALM      29.73R
JUNEAU         CLOUDY    72  65  79 N5        29.74R
6HR MIN TEMP:  72; 6HR MAX TEMP:  76;

$$

LSZ147-162-230100-
LAKE SUPERIOR

STATION/POSITION TIME  TEMP    WIND        PRES    WAVE
                       AIR SEA DIR/SP/G            HT/PER
                 (UTC) (F)     (DEG/KT/KT) (MB)    (FT/S)
W MID LAKE BUOY  2350   50 39  220/ 10/ 12 1003.8S   1
DEVILS ISLAND    2300   70     220/ 14/ 16 1003.5F
SAXON HARBOR     2330   75     210/  8/ 11 1004.7S
$$

LMZ867-665-643>646-230100-
LAKE MICHIGAN

STATION/POSITION TIME  TEMP    WIND        PRES    WAVE
                       AIR SEA DIR/SP/G            HT/PER
                 (UTC) (F)     (DEG/KT/KT) (MB)    (FT/S)
CHAMBERS ISLAND  2340   67     210/  3/  6 1006.1R
N MID LAKE BUOY  2350   58 55  200/  6/  6 1006.8R   2/ 5
NORTHPORT PIER   2340   68     220/  3/  8 1006.1R
KEWAUNEE LAKESHO 2348   70     250/  7/ 11 1006.3F
SHEBOYGAN LAKESH 0000   64     110/  2/  2 1005.8F
PORT WASHINGTON  2340   63      40/  1/  3 1006.8F
ATWATER B



USA.gov is the U.S. government's official web portal to all federal, state and local government web resources and services.